Tracking 18840 objects as of 17-November-2017
HD Live streaming from Space Station
objects crossing your sky now

FENGYUN 1C DEB

Track FENGYUN 1C DEB now!
10-day predictions


NORAD ID: 32095
Int'l Code: 1999-025CQM
Perigee: 797.0 km
Apogee: 913.7 km
Inclination: 98.9 °
Period: 101.9 minutes
Semi major axis: 7226 km
RCS: 0.0116 m2 (small)
Launch date: May 10, 1999
Source: People's Republic of China (PRC)
Launch site: Taiyaun Space Center, China (TSC)

Note: This is SATELLITE DEBRIS
aabbcc
Your satellite tracking list
Your tracking list is empty




NASA's NSSDC Master Catalog

Two Line Element Set (TLE):
1 32095U 99025CQM 17316.30436386  .00000126  00000-0  88398-4 0  9994
2 32095  98.9369 340.9954 0080745 217.8417 141.7062 14.13272336532163
Source of the keplerian elements: AFSPC